Printer-friendly version

IAU Minor Planet Center

Minor Planet Center

MPEC 2006-L44 : COMET P/2006 G1 (McNAUGHT)

The following Minor Planet Electronic Circular may be linked-to from your own Web pages, but must not otherwise be redistributed electronically.


Read MPEC 2006-L43 Read MPEC 2006-L45


M.P.E.C. 2006-L44                                Issued 2006 June 10, 16:10 UT

     The Minor Planet Electronic Circulars contain information on unusual
         minor planets and routine data on comets.  They are published
   on behalf of Commission 20 of the International Astronomical Union by the
          Minor Planet Center, Smithsonian Astrophysical Observatory,
                          Cambridge, MA 02138, U.S.A.

                  Supported in part by the Brinson Foundation
                  Supported in part by the TABASGO Foundation
             Prepared using the Tamkin Foundation Computer Network

                              MPC@CFA.HARVARD.EDU
          URL http://cfa-www.harvard.edu/iau/mpc.html  ISSN 1523-6714

                          COMET P/2006 G1 (McNAUGHT)

Observations:
    PK06G010  C2006 06 03.42885 13 57 38.95 -39 23 55.5          17.4 T EL044E12
    PK06G010  C2006 06 03.44057 13 57 38.88 -39 23 49.4          17.4 T EL044E12
    PK06G010  C2006 06 03.45230 13 57 38.77 -39 23 42.7          17.3 T EL044E12
    PK06G010  C2006 06 04.21262 13 57 32.52 -39 17 00.1          18.5 T EL044673
    PK06G010  C2006 06 04.22315 13 57 32.47 -39 16 54.1                 EL044673
    PK06G010  C2006 06 04.23484 13 57 32.41 -39 16 47.3                 EL044673
    PK06G010  C2006 06 04.44499 13 57 30.90 -39 14 50.5          18.9 N EL044423
    PK06G010  C2006 06 06.99504 13 57 18.88 -38 51 57.4          17.4 N EL044I77
    PK06G010  C2006 06 07.00089 13 57 18.79 -38 51 54.4          17.7 N EL044I77
    PK06G010  C2006 06 07.00669 13 57 18.73 -38 51 51.0          17.7 N EL044I77

Observer details:
423 North Ryde.  Observer S. G. McAndrew.  0.20-m f/4 hyperbolic astrograph
    + CCD.
673 Table Mountain Observatory, Wrightwood.  Observer J. Young.  0.61-m f/16
    Cassegrain + CCD.
E12 Siding Spring Survey.  Observer G. J. Garradd.  0.5-m Uppsala Schmidt
    + CCD.
I77 CEAMIG-REA Observatory, Belo Horizonte.  Observers C. Jacques, E. Pimentel.
    Measurer C. Jacques.  0.30-m f/3.0 Schmidt-Cassegrain + CCD.

Orbital elements:
    P/2006 G1 (McNaught)
Epoch 2006 Aug. 13.0 TT = JDT 2453960.5
T 2006 Aug. 18.49610 TT                                 MPC
q   2.6321306            (2000.0)            P               Q
n   0.09320252     Peri.  313.93935     -0.25652539     +0.92579047
a   4.8178240      Node   299.25099     -0.77033280     -0.36935121
e   0.4536682      Incl.   18.55794     -0.58376545     +0.08057104
P  10.57
Residuals in seconds of arc
060405 E12  0.9-  0.1+    060409 415  0.5+  0.6-    060513 415  1.2+  0.0
060405 E12  0.9-  0.0     060412 415  0.6+  0.3+    060513 415  0.3+  0.2-
060405 E12  0.3-  0.1-    060412 415  1.2+  0.4-    060515 415  0.5+  0.4-
060405 E12  0.1-  0.4+    060417 423  0.4+  0.2-    060515 415  0.0   0.1-
060406 423  0.2+  0.5-    060417 423  0.2-  0.4-    060517 423  0.3-  0.3+
060406 E12  0.2+  0.7-    060419 415  0.1+  0.1-    060517 423  0.4-  0.0
060406 E12  0.1+  0.1-    060419 415  0.3+  0.2-    060518 423  0.8-  0.6-
060406 423  1.2-  1.0+    060420 423  0.1-  1.0+    060518 423  0.5-  0.5-
060406 E12 (1.4+  2.5+)   060420 423  0.0   0.1+    060521 423  0.3+  0.6+
060406 E12  0.1+  0.4+    060421 423  0.1+  0.2+    060521 423  0.1-  0.2+
060406 E12  0.7+  0.4-    060421 423  0.1+  0.2+    060524 423  0.8-  1.1-
060406 423  0.9+  1.6-    060421 423  0.3-  0.7+    060524 423  0.1+  0.5-
060406 E12  0.4-  0.3+    060422 423  0.2+  0.3-    060525 423  0.4-  0.3-
060406 E12  0.9-  0.5+    060422 423  0.4-  0.0     060525 423  0.2+  0.3+
060406 E12  1.5-  0.5+    060424 415  0.6+  0.3-    060526 423  0.5-  0.1-
060406 E12  0.6-  0.2+    060424 415  0.6+  0.2-    060526 423  0.1+  0.1+
060406 E12  0.1+  0.3+    060425 423  0.6-  1.6+    060526 E12  0.7-  1.4+
060406 E12  0.7+  0.5-    060425 423  0.1-  0.7-    060526 E12  0.1+  0.5+
060406 E12  1.2-  0.1-    060429 423  0.1+  0.9-    060526 E12  0.8-  1.3+
060406 E12  0.7-  0.4+    060429 423  0.4-  0.2+    060526 E12  0.1-  0.1+
060406 E12  0.3+  0.1-    060502 423  0.1-  0.0     060527 423  0.1-  0.2-
060406 E12  0.3-  0.4-    060502 423  0.6-  0.3+    060527 423  0.2-  0.3-
060406 E12  0.1-  0.1+    060504 415  0.5+  0.0     060528 423  0.5-  0.3+
060406 E12  0.2+  0.1-    060504 415  0.3+  0.2-    060601 423  0.7-  0.1+
060407 E12  0.3+  0.0     060505 423  0.1+  0.0     060601 423  0.9-  0.3-
060407 E12  0.1-  0.2-    060505 E12  0.1-  0.7-    060603 E12  0.3-  0.2+
060407 E12  0.0   0.4-    060505 E12  0.3-  0.2-    060603 E12  0.4+  0.1+
060407 E12  0.5+  0.2-    060505 E12  0.2-  0.0     060603 E12  0.6+  0.5+
060407 423  0.3+  0.1-    060505 E12  0.3-  0.2+    060604 673  0.5-  0.7-
060407 423  0.5+  0.4+    060505 E12  0.3-  0.4+    060604 673  0.1+  0.4-
060407 E12  0.3-  0.3+    060505 E12  1.7+  0.7-    060604 673  0.7+  0.1+
060407 E12  1.4-  0.1+    060505 E12  0.1-  0.3+    060604 423  0.4-  0.1-
060408 415  0.7+  0.5-    060505 E12  0.4-  0.5+    060606 I77  1.5+  0.3-
060408 415  0.5+  0.1+    060508 423  0.1+  0.4-    060607 I77  0.8+  0.5-
060408 415  1.0+  0.7-    060508 423  0.1+  0.1-    060607 I77  0.5+  0.2-
060408 423  0.3+  1.4+    060509 423  1.1+  1.4+
060409 415  1.0+  0.4-    060509 423  0.2-  0.5+

Brian G. Marsden             (C) Copyright 2006 MPC           M.P.E.C. 2006-L44

Read MPEC 2006-L43 Read MPEC 2006-L45


Our Web policy. Index to the CBAT/MPC/ICQ pages.


Valid HTML 4.01!